K5TWC Weather Reports


time (UTC)temp
F
wind
direction
speed
knots
gust
knots
rain 1hr
in
rain 24hr
in
rain mn
in
humidity
%
barometer
mb
20220629031524 80 53 1.7 5.2 0.00 0.00 0.00 58 1018.0
20220629030019 81 63 1.7 5.2 0.00 0.00 0.00 57 1017.7
20220629024515 81 5 0.9 6.1 0.00 0.00 0.00 55 1017.4
20220629023024 82 16 2.6 7.8 0.00 0.00 0.00 54 1017.4
20220629021521 83 29 1.7 6.1 0.00 0.00 0.00 54 1017.2
20220629020013 83 43 2.6 7.8 0.00 0.00 0.00 52 1017.0
20220629014514 84 55 1.7 7.0 0.00 0.00 0.00 50 1016.9
20220629013017 84 51 0.9 6.1 0.00 0.00 0.00 48 1016.9
20220629011513 85 51 0.9 5.2 0.00 0.00 0.00 47 1016.8
20220629010017 86 34 2.6 7.8 0.00 0.00 0.00 44 1016.6
20220629004513 87 42 2.6 7.8 0.00 0.00 0.00 40 1016.5
20220629003009 88 53 1.7 7.8 0.00 0.00 0.00 37 1016.4
20220629001510 89 45 2.6 7.0 0.00 0.00 0.00 36 1016.4
20220629000011 89 77 1.7 6.1 0.00 0.00 0.00 35 1016.3
20220628234509 89 82 0.9 6.1 0.00 0.00 0.00 36 1016.3
20220628233012 88 57 2.6 6.1 0.00 0.00 0.00 37 1016.4
20220628231507 89 50 2.6 6.1 0.00 0.00 0.00 36 1016.4
20220628230006 89 76 1.7 5.2 0.00 0.00 0.00 35 1016.6
20220628224508 89 11 1.7 6.1 0.00 0.00 0.00 36 1016.9
20220628223005 89 49 2.6 7.0 0.00 0.00 0.00 35 1017.0
20220628221510 89 58 0.9 5.2 0.00 0.00 0.00 35 1017.4
20220628220004 89 43 1.7 6.1 0.00 0.00 0.00 37 1017.5
20220628214503 90 307 2.6 6.1 0.00 0.00 0.00 36 1017.8
20220628213007 90 331 2.6 7.8 0.00 0.00 0.00 37 1017.9
20220628211503 90 18 1.7 7.0 0.00 0.00 0.00 38 1018.1
20220628210100 90 360 1.7 5.2 0.00 0.00 0.00 37 1018.5
20220628204601 89 46 1.7 5.2 0.00 0.00 0.00 38 1018.6
20220628203104 88 344 3.5 7.0 0.00 0.00 0.00 37 1018.9
20220628201558 89 325 3.5 7.8 0.00 0.00 0.00 37 1019.0
20220628200056 89 42 2.6 7.0 0.00 0.00 0.00 37 1019.1
20220628194623 89 346 4.3 8.7 0.00 0.00 0.00 35 1019.1
20220628193103 88 34 5.2 12.2 0.00 0.00 0.00 37 1019.3
20220628191555 88 49 3.5 7.8 0.00 0.00 0.00 37 1019.5
20220628190051 88 51 1.7 7.0 0.00 0.00 0.00 39 1019.6
20220628184550 88 86 2.6 7.0 0.00 0.00 0.00 41 1019.9
20220628183049 88 36 2.6 7.0 0.00 0.00 0.00 40 1020.1
20220628181547 87 99 0.9 8.7 0.00 0.00 0.00 41 1020.3
20220628180051 87 84 3.5 7.0 0.00 0.00 0.00 40 1020.4
20220628174545 86 78 3.5 8.7 0.00 0.00 0.00 42 1020.5
20220628173043 86 47 2.6 7.0 0.00 0.00 0.00 43 1020.6
20220628171545 87 67 2.6 8.7 0.00 0.00 0.00 43 1020.6
20220628170041 85 128 3.5 7.8 0.00 0.00 0.00 43 1020.6
20220628164539 84 78 4.3 8.7 0.00 0.00 0.00 44 1020.8
20220628163039 85 121 4.3 14.8 0.00 0.00 0.00 45 1020.7
20220628161536 84 92 5.2 13.9 0.00 0.00 0.00 44 1020.7
20220628160034 83 123 5.2 9.6 0.00 0.00 0.00 46 1020.7
20220628154536 83 107 5.2 10.4 0.00 0.00 0.00 46 1020.8
20220628153032 83 84 4.3 7.8 0.00 0.00 0.00 46 1020.6
20220628151529 82 108 4.3 9.6 0.00 0.00 0.00 47 1020.7
20220628150026 81 78 4.3 8.7 0.00 0.00 0.00 48 1020.6
20220628144536 80 103 1.7 6.1 0.00 0.00 0.00 53 1020.6
20220628143023 79 116 2.6 7.8 0.00 0.00 0.00 55 1020.7
20220628141519 79 81 2.6 8.7 0.00 0.00 0.00 57 1020.6
20220628140016 78 117 0.9 6.1 0.00 0.00 0.00 61 1020.5
20220628134515 77 84 2.6 7.0 0.00 0.00 0.00 63 1020.5
20220628133022 76 46 1.7 7.0 0.00 0.00 0.00 67 1020.4
20220628131512 75 76 0.0 3.5 0.00 0.00 0.00 72 1020.1
20220628130012 74 55 0.0 2.6 0.00 0.00 0.00 73 1020.2
20220628124511 73 67 0.0 2.6 0.00 0.00 0.00 74 1020.1
20220628123010 73 56 0.0 1.7 0.00 0.00 0.00 76 1020.0
20220628121510 71 63 0.9 3.5 0.00 0.00 0.00 78 1019.8
20220628120009 71 94 0.0 0.0 0.00 0.00 0.00 79 1020.0
20220628114509 70 94 0.0 0.0 0.00 0.00 0.00 79 1019.9
20220628113007 71 94 0.0 0.0 0.00 0.00 0.00 80 1019.7
20220628111506 71 94 0.0 0.0 0.00 0.00 0.00 80 1019.5
20220628110004 71 94 0.0 0.0 0.00 0.00 0.00 80 1019.4
20220628104504 72 94 0.0 0.0 0.00 0.00 0.00 79 1019.5
20220628103001 72 94 0.0 0.0 0.00 0.00 0.00 80 1019.5
20220628101615 72 94 0.0 0.0 0.00 0.00 0.00 80 1019.4
20220628100059 72 94 0.0 0.0 0.00 0.00 0.00 79 1019.5
20220628094601 73 94 0.0 0.0 0.00 0.00 0.00 79 1019.1
20220628093057 73 94 0.0 0.0 0.00 0.00 0.00 79 1019.1
20220628091556 73 94 0.0 1.7 0.00 0.00 0.00 78 1019.0
20220628090054 73 94 0.0 2.6 0.00 0.00 0.00 77 1019.0
20220628084551 74 92 0.0 1.7 0.00 0.00 0.00 77 1018.9
20220628083050 74 84 0.0 2.6 0.00 0.00 0.00 77 1018.7
20220628081549 74 92 0.0 2.6 0.00 0.00 0.00 77 1018.8
20220628080048 74 99 0.0 2.6 0.00 0.00 0.00 77 1018.8
20220628074546 75 95 0.0 1.7 0.00 0.00 0.00 76 1018.9
20220628073044 75 94 0.0 1.7 0.00 0.00 0.00 76 1019.0
20220628071542 76 86 0.0 4.3 0.00 0.00 0.00 74 1019.0
20220628070040 76 113 0.0 2.6 0.00 0.00 0.00 74 1019.1
20220628064539 76 115 0.0 2.6 0.00 0.00 0.00 74 1019.0
20220628063037 77 82 0.0 2.6 0.00 0.00 0.00 73 1019.0
20220628061536 77 107 0.9 5.2 0.00 0.00 0.00 74 1019.0
20220628060034 77 81 0.9 4.3 0.00 0.00 0.00 74 1019.3
20220628054535 78 94 0.0 2.6 0.00 0.00 0.00 74 1019.1
20220628053031 78 72 0.9 3.5 0.00 0.00 0.00 73 1019.1
20220628051530 78 101 0.0 4.3 0.00 0.00 0.00 73 1019.4
20220628050028 79 88 0.0 4.3 0.00 0.00 0.00 72 1019.3
20220628044531 79 65 0.0 2.6 0.00 0.00 0.00 72 1019.3
20220628043027 79 55 0.0 1.7 0.00 0.00 0.00 71 1019.0
20220628041526 80 57 0.0 3.5 0.00 0.00 0.00 71 1018.9
20220628040026 80 81 0.9 3.5 0.00 0.00 0.00 70 1018.9
20220628034525 81 81 0.0 4.3 0.00 0.00 0.00 70 1018.6
20220628033025 81 45 0.9 4.3 0.00 0.00 0.00 69 1018.4